BrentButler.com
Blog, etc. Weather Cubs Drumline
Weather Information for Des Moines, IA
Current Conditions
Partly Cloudy, 52°
Partly Cloudy, 52°
Dew Point41°
Humidity:66%
Wind:SSE 9
Visibility:10.0 miles
UV Index:Low (0)
Barometer:30.04
Sunrise:7:34 AM
Sunset:6:22 PM
Temperature Changes
24 Hour:4° 
7 Day:2° 
1 Year:7° 
Highs & Lows
Today:67° / 50°
Yesterday:75° / 53°
October 2017:85° / 40°
1 Year Ago:72° / 42°
Average:61° / 41°
Record High:87° (1899)
Record Low:21° (1976)
Last updated at 8:54 PM
Powered by Weather Underground
Forecast
Sunday, 10/22
High:67°
Low:45°
Partly Cloudy
Sunday:
Partly cloudy. Lows overnight in the mid 40s.
Sunday Night:
Some clouds this evening will give way to mainly clear skies overnight. Low near 45°. Winds S at 5 to 10 mph.
Monday, 10/23
High:64°
Low:40°
Partly Cloudy
Monday:
Partly cloudy skies, with gusty winds developing during the afternoon. High 64°. Winds WNW at 20 to 30 mph.
Monday Night:
Partly cloudy skies. Low around 40°. Winds NW at 15 to 25 mph.
Tuesday, 10/24
High:52°
Low:38°
Partly Cloudy
Tuesday:
Partly cloudy skies with gusty winds. High 52°. Winds NW at 20 to 30 mph. Higher wind gusts possible.
Tuesday Night:
Mostly clear. Low 38°. Winds WNW at 10 to 20 mph.
Wednesday, 10/25
67° / 49°
Clear
0%Chance of
Precipitation
Thursday, 10/26
60° / 33°
Mostly Cloudy
0%Chance of
Precipitation
Friday, 10/27
44° / 30°
Clear
0%Chance of
Precipitation
Saturday, 10/28
46° / 32°
Clear
0%Chance of
Precipitation
Sunday, 10/29
49° / 34°
Clear
0%Chance of
Precipitation
Monday, 10/30
50° / 36°
Partly Cloudy
0%Chance of
Precipitation
Tuesday, 10/31
52° / 37°
Partly Cloudy
0%Chance of
Precipitation
Earlier Today
TimeConditionsDew PointHumidityWindVisibilityUV IndexBarometer
8:54 PM CDT
Partly Cloudy, 52°Partly Cloudy, 52°
41°66%SSE 910.0 milesLow (0)30.04
7:54 PM CDT
Partly Cloudy, 53°Partly Cloudy, 53°
41°64%SSE 810.0 milesLow (0)30.04
6:54 PM CDT
Clear, 58°Clear, 58°
38°47%SE 810.0 milesLow (0)30.04
6:29 PM CDT
Mostly Cloudy, 64°Mostly Cloudy, 64°
28°26%Calm10.0 milesLow (0)30.03
Sunset: 6:22 PM
5:54 PM CDT
Mostly Cloudy, 66°Mostly Cloudy, 66°
29°25%Calm10.0 milesLow (0)30.03
4:54 PM CDT
Mostly Cloudy, 67°Mostly Cloudy, 67°
32°27%NNW 710.0 milesLow (1)30.04
3:54 PM CDT
Mostly Cloudy, 66°Mostly Cloudy, 66°
36°33%West 410.0 milesLow (2)30.03
2:54 PM CDT
Partly Cloudy, 64°Partly Cloudy, 64°
36°35%NW 610.0 milesModerate (3)30.04
1:54 PM CDT
Partly Cloudy, 64°Partly Cloudy, 64°
38°38%WNW 1310.0 milesModerate (3)30.06
12:54 PM CDT
Partly Cloudy, 62°Partly Cloudy, 62°
41°46%NW 910.0 milesModerate (4)30.07
11:54 AM CDT
Partly Cloudy, 58°Partly Cloudy, 58°
43°58%NW 810.0 milesModerate (3)30.08
10:54 AM CDT
Mostly Cloudy, 54°Mostly Cloudy, 54°
43°66%NW 710.0 milesLow (2)30.08
9:54 AM CDT
Mostly Cloudy, 52°Mostly Cloudy, 52°
43°71%NW 910.0 milesLow (1)30.07
8:54 AM CDT
Overcast, 51°Overcast, 51°
44°77%NW 810.0 milesLow (0)30.05
7:54 AM CDT
Overcast, 50°Overcast, 50°
45°83%NW 610.0 milesLow (0)30.01
Sunrise: 7:34 AM
6:54 AM CDT
Overcast, 50°Overcast, 50°
46°86%WNW 1010.0 milesLow (0)30.00
5:54 AM CDT
Overcast, 51°Overcast, 51°
46°83%WNW 710.0 milesLow (0)29.99
4:54 AM CDT
Rain, 51°Rain, 51°
47°86%NW 510.0 milesLow (0)29.98
3:54 AM CDT
Rain, 51°Rain, 51°
46°83%NW 710.0 milesLow (0)29.96
2:54 AM CDT
Rain, 51°Rain, 51°
47°86%NW 510.0 milesLow (0)29.95
1:54 AM CDT
Rain, 52°Rain, 52°
46°80%NW 810.0 milesLow (0)29.94
12:54 AM CDT
Rain, 52°Rain, 52°
47°83%NNW 1010.0 milesLow (0)29.91
Currently in Des Moines:
Partly Cloudy and 52°
©2000-2017 BrentButler.com.
9:30:12 PM CDT
Sunday, October 22nd, 2017

Twitter

Facebook

YouTube

Instagram

Foursquare